Location: Mason-Dixon Star Party
(40.0361°N, 76.9958°W)
Time: 07:19:50
(UTC-05:00)

Daily predictions for brighter satellites

Satellite Brightness Start Highest point End
(mag) Time Altitude Azimuth Time Altitude Azimuth Time Altitude Azimuth
ALOS 2.2 18:09:35 10° SSE 18:14:13 70° ENE 18:18:52 10° N
Cosmos 1725 Rocket 4.1 18:10:52 10° N 18:17:12 86° W 18:23:28 10° S
Cosmos 2333 Rocket 2.2 18:12:00 10° NNW 18:17:42 86° ENE 18:23:21 10° SSE
Cosmos 1812 3.9 18:15:05 10° NNE 18:18:08 21° ENE 18:21:09 10° SE
Cosmos 2082 4.0 18:18:31 10° S 18:23:50 45° ESE 18:29:11 10° NE
COSMOS 2428 4.0 18:18:21 10° NW 18:23:50 48° WSW 18:29:16 10° S
ERS-2 3.1 18:23:32 10° SE 18:26:40 27° ENE 18:29:48 10° N
Abrixas rocket 3.7 18:26:21 10° WNW 18:29:18 35° SW 18:32:14 10° SSE
Envisat 4.2 18:30:15 10° ESE 18:33:57 21° ENE 18:37:41 10° NNE
Cosmos 1674 Rocket 4.0 18:30:43 10° N 18:34:48 38° ENE 18:38:49 10° SSE
SL-8 R/B 4.1 18:32:10 10° SSW 18:36:42 45° SE 18:40:35 14° ENE
Cosmos 1633 3.5 18:34:56 10° SSE 18:37:53 25° E 18:40:51 10° NE
USA 215 3.4 18:32:42 10° NE 18:39:07 56° SE 18:45:30 10° SSW
Cosmos 1908 Rocket 4.4 18:36:48 10° SSE 18:40:38 29° E 18:44:29 10° NNE
YAOGAN 1 4.1 18:37:28 10° S 18:41:33 40° W 18:45:39 10° NNW
SeaSat 1 3.2 18:39:05 10° ESE 18:43:24 32° NE 18:47:46 10° N
Cosmos 1980 3.7 18:37:55 10° NNW 18:43:39 89° ENE 18:49:19 10° SSE
EO 1 Del DPAF 3.1 18:40:01 10° NNE 18:43:51 83° ESE 18:47:40 10° SSW
NOSS 3-2 (C) 3.4 18:40:01 10° SSW 18:45:54 89° WNW 18:52:28 10° NE
Aureole 3 4.2 18:41:05 10° S 18:47:21 61° E 18:52:20 10° NNE
NOSS 0 Rocket 4.3 18:41:27 10° NNW 18:47:36 69° WSW 18:53:45 10° SSE
Cosmos 1733 Rocket 3.0 18:44:53 10° S 18:49:11 89° ESE 18:53:32 10° N
HJ-1C 4.1 18:46:12 10° SE 18:49:15 31° ENE 18:52:21 10° N
FengYun 1-2 T 4.2 18:45:17 10° SSE 18:50:44 65° ENE 18:56:10 10° N
Resurs 01 Rocket 3.1 18:55:49 18° ENE 18:55:49 18° ENE 18:58:39 10° NNE
Cosmos 921 Rocket 4.3 18:52:46 10° NNE 18:56:16 21° ENE 18:56:51 21° ENE
Okean 3 3.4 18:55:31 10° N 18:59:38 58° E 19:03:45 10° SSE
Shenzhou-11 Module 3.6 19:01:11 10° W 19:03:52 30° SSW 19:05:43 16° SSE
Cosmos 1975 Rocket 4.0 19:04:30 10° NNE 19:07:57 26° ENE 19:07:57 26° ENE
SJ-6B 2.8 19:05:44 10° SSE 19:09:22 52° ENE 19:13:06 10° N
SPOT 3 Rocket 4.4 19:04:42 10° S 19:09:45 54° W 19:14:53 10° NNW
DNEPR-1 R/B 4.5 19:07:07 10° SW 19:11:09 45° NW 19:15:20 10° NNE
USA 267 4.1 19:08:44 21° ENE 19:12:02 33° NNE 19:17:43 10° NW
Cosmos 2219 Rocket 4.5 19:11:00 10° NW 19:15:36 26° WSW 19:20:10 10° SSW
CENTAUR R/B 2.4 19:12:33 10° SSW 19:18:22 66° ESE 19:24:34 12° NE
Cosmos 1452 Rocket 3.4 19:13:16 10° NNW 19:18:34 82° ENE 19:23:49 10° SSE
Meteor 1-14 Rocket 4.3 19:14:29 10° S 19:20:14 84° W 19:26:10 10° N
Okean 1 3.3 19:19:25 10° N 19:23:21 52° E 19:23:55 47° ESE
Spot 2 Rocket 4.3 19:24:29 31° ENE 19:24:29 31° ENE 19:28:30 10° N
Cosmos 44 Rocket 3.5 19:19:19 10° NNW 19:24:16 55° NE 19:25:59 37° ESE
Tiangong 2 1.0 19:22:07 10° WNW 19:25:18 80° SSW 19:25:22 79° S
Cosmos 1048 Rocket 4.0 19:20:37 10° S 19:25:52 61° ESE 19:31:06 10° NNE
Cosmos 2227 Rocket 3.4 19:21:37 10° SW 19:26:56 42° WNW 19:32:17 10° N
Geosat 4.0 19:25:09 22° NE 19:28:16 56° ESE 19:33:11 10° SSW
FREGAT/IRIS 4.1 19:25:34 10° SSW 19:28:20 37° W 19:31:07 10° NNW
Cosmos 2237 Rocket 3.5 19:23:12 10° NW 19:28:26 41° WSW 19:33:40 10° S
Cosmos 1464 Rocket 3.9 19:23:42 10° N 19:29:52 87° W 19:36:00 10° S
Sich 1 Rocket 3.5 19:25:26 10° S 19:29:57 79° E 19:34:27 10° N
SL-16 R/B 2.1 19:25:20 10° NNW 19:31:02 82° ENE 19:35:31 17° SSE
Cosmos 1378 Rocket 3.6 19:30:15 10° N 19:34:40 77° W 19:39:04 10° S
Cosmos 1782 Rocket 3.4 19:33:30 10° S 19:37:56 72° E 19:42:22 10° NNE
Iridium 4 Rocket 3.5 19:34:01 10° N 19:38:59 70° W 19:43:28 10° S
Cosmos 158 Rocket 4.1 19:34:31 10° SSW 19:39:23 66° WNW 19:44:15 10° NNE
Cosmos 1420 Rocket 4.1 19:35:53 10° NNW 19:41:11 79° WSW 19:45:52 13° SSE
Cosmos 2297 Rocket 3.6 19:36:06 10° SW 19:41:17 37° WNW 19:46:32 10° N
CZ-2D R/B 3.6 19:43:08 19° S 19:45:47 63° W 19:49:39 10° NNW
Cosmos 1603 4.4 19:43:50 10° N 19:48:14 36° NE 19:48:14 36° NE
Lacrosse 5 3.8 19:47:26 10° WNW 19:51:37 26° WSW 19:55:46 10° S
Cosmos 2034 Rocket 4.4 19:57:31 10° NNW 20:03:50 65° W 20:10:07 10° S
Thor Agena Rocket 4.3 19:58:56 10° N 20:03:51 49° WNW 20:08:41 10° SW
Cosmos 44 4.1 19:59:06 10° NW 20:04:01 52° WSW 20:05:50 35° S
Meteor 1-19 Rocket 4.0 19:59:20 10° N 20:04:52 83° E 20:05:04 81° ESE
BREEZE-M DEB (TANK) 3.8 20:03:41 10° SW 20:21:35 - NE 20:05:46 48° SSW
Cosmos 1437 Rocket 4.2 20:07:17 10° SSW 20:09:55 34° SW 20:09:55 34° SW
Envisat 3.9 20:07:46 10° S 20:12:38 46° W 20:17:31 10° NNW
Meteor 2-4 Rocket 4.3 20:10:33 10° N 20:14:43 47° N 20:14:43 47° N
Cosmos 1269 Rocket 4.4 20:12:00 10° SSW 20:17:12 60° WNW 20:18:52 41° N
CZ-4C R/B 3.8 20:11:42 10° NNW 20:16:56 31° NNE 20:16:56 31° NNE
SeaSat 1 3.9 20:18:12 20° SSW 20:20:51 34° WSW 20:25:19 10° NW
USA 215 4.0 20:18:48 27° NNE 20:22:00 46° NNW 20:28:10 10° WSW
Resurs 01 Rocket 3.4 20:33:23 30° NW 20:33:23 30° NW 20:35:59 10° NNW
USA 267 3.7 20:56:05 57° NW 20:56:05 57° NW 21:01:08 10° NW
CENTAUR R/B 4.3 21:04:24 10° W 21:09:39 28° NW 21:11:51 23° N
